OBJECT AF, 57195

Orbit data source: Space-Track

You're viewing an Uncataloged Satellite

Recently launched and/or uncataloged satellites may have evolving metadata. Metadata may include but not limited to: Owner, Maufacturer, Bus, Motor, and Mission.

OBJECT AF, 57195 is a satellite in SSO that was launched on Tue, 27 Jun 2023 UTC via a SOYUZ-2-1B launch vehicle from the Vostochny Cosmodrome (VOSTO). Unknown objects in Earth's orbit typically refer to objects detected orbiting the Earth but have not yet been identified or cataloged. These objects could be anything from previously untracked satellites, spent rocket stages, debris from satellite collisions, or even natural meteoroids temporarily captured by Earth's gravity.

Loading next visibility...
Identifier
57195, 2023-091AF
Orbit
SSO
Country
Flag of TBDTBD
Related business
Manufacturer
NILAKT DOSAAF
Mission
Operational Amateur Science
Bus & Motor
CUBESAT 3U, Unknown motor
Mass
5 kg wet, 5 kg dry
Launch date (UTC)
2023-06-27 (3 years ago)
Launch vehicle
SOYUZ-2-1B
Launch site
Vostochny Cosmodrome (VOSTO)
Object type
Unknown
Shape & HBR
Box, 0.1 m
Radar Cross Section
0.035 m², Medium (>0.1 m² and < 1m²)

Expand to show TLE details & history
Last TLE update: 10 hours ago

TLE from 10 hours ago
0 OBJECT AF
1 57195U 23091AF  26104.23996456  .00003262  00000-0  15594-3 0  9999
2 57195  97.5150 164.0896 0009661 341.8498  18.2390 15.19694182154312
Epoch: 2026-04-14T05:45Z
TLE epoch observation values (Epoch: 2026-04-14T05:45:32.937Z)
Latitude
-0.0001°
Longitude
-124.71668°
Altitude
503.533 km
Speed
7.616 km/s
True Right ascension
10h 56m 21s
True Declination
0° 00' 00"
Sunlit
Object was in full shadow at epoch
Visualization orbit readout
Latitude
Unknown
Longitude
Unknown
Altitude
Unknown
Speed
Unknown
Apparent Right ascension
Unknown
Apparent Declination
Unknown
Sunlit
N/A
Visualization observer readout
Local Sidereal Time
22:37:18
Azimuth
Unknown
Elevation
Unknown
Doppler factor
Unknown
Orbital elements
Apogee altitude
510.384 km
Perigee altitude
497.086 km
Semi-major axis
6,881.872 km
Eccentricity
0.00097
Inclination
97.515°
RAAN
164.0896°
Arg. of periapsis
341.8498°
True anomaly
18.27369°
Mean anomaly
18.239°
Eccentric anomaly
18.25634°
Mean motion
3.80175 °/min
Orbital period
94.69 mins
BSTAR
0.00015594
Loading maneuver chart data...
Computing Atmospheric mass density...
Loading historical data...
Loading historical data...
Loading historical data...
Loading historical data...
Loading historical data...
Loading historical data...
Loading historical data...

Documentation

Showing up to 5 results
|